SL-12 R/B(2), 33471

Orbit data source: Space-Track

SL-12 R/B(2), 33471 is space debris in MEO originally from a launch on Thu, 25 Dec 2008 UTC launched from the Tyuratam Missile And Space Complex (TTMTR). Debris objects in space refer to the collection of defunct objects orbiting the Earth. Examples of debris include non-operational satellites, rocket bodies, and fragments generated from explosions, collisions, or faulty payload assembly.

Loading next visibility...
Identifier
33471, 2008-067F
Orbit
MEO
Country
Flag of CISCIS
Related business
Manufacturer
RKKE
Mission
Spacecraft
Bus & Motor
BLOK DM2, 11D58M
Mass
2,440 kg wet, 2,440 kg dry
Launch date (UTC)
2008-12-25 (17 years ago)
Launch vehicle
Unknown
Launch site
Tyuratam Missile And Space Complex (TTMTR)
Object type
Payload
Rocket body
Debris
Shape & HBR
Cyl, 3.5 m
Radar Cross Section
26.008 m², Large (>1 m²)

Expand to show TLE details & history
Last TLE update: 2 days ago

TLE from 2 days ago
0 SL-12 R/B(2)
1 33471U 08067F   26171.34901600 -.00000046  00000-0  00000+0 0  9999
2 33471  64.8210  68.8451 0004818 342.3872 204.3339  2.13248873136162
Epoch: 2026-06-20T08:22Z
TLE epoch observation values (Epoch: 2026-06-20T08:22:34.982Z)
Latitude
-6.08771°
Longitude
-142.4859°
Altitude
19,130.95 km
Speed
3.952 km/s
True Right ascension
16h 46m 53s
True Declination
-6° 04' 39"
Sunlit
Object was in daylight at epoch
Visualization orbit readout
Latitude
Unknown
Longitude
Unknown
Altitude
Unknown
Speed
Unknown
Apparent Right ascension
Unknown
Apparent Declination
Unknown
Sunlit
N/A
Visualization observer readout
Local Sidereal Time
00:51:31
Azimuth
Unknown
Elevation
Unknown
Doppler factor
Unknown
Orbital elements
Apogee altitude
19,130.079 km
Perigee altitude
19,105.511 km
Semi-major axis
25,495.932 km
Eccentricity
0.00048
Inclination
64.821°
RAAN
68.8451°
Arg. of periapsis
342.3872°
True anomaly
204.31116°
Mean anomaly
204.3339°
Eccentric anomaly
204.32253°
Mean motion
0.53313 °/min
Orbital period
675.25 mins
BSTAR
0
Loading maneuver chart data...
Computing Atmospheric mass density...
Loading historical data...
Loading historical data...
Loading historical data...
Loading historical data...
Loading historical data...
Loading historical data...
Loading historical data...

Documentation

Showing up to 5 results
|